Location: Unspecified
(0.0000°N, 0.0000°E)
Time: 23:03:06
(UTC+02:00)

Daily predictions for brighter satellites

Satellite Brightness Start Highest point End
(mag) Time Altitude Azimuth Time Altitude Azimuth Time Altitude Azimuth
ALOS 2.5 20:25:17 10° S 20:29:57 77° WSW 20:34:36 10° NNW
Iridium 90 3.9 20:31:12 10° S 20:33:32 68° W 20:36:07 10° N
Lacrosse 5 3.2 20:31:40 10° SW 20:36:31 46° WNW 20:41:21 10° NNE
Cosmos 1892 Rocket 3.9 20:38:01 10° S 20:42:20 70° W 20:46:41 10° N
DELTA 2 R/B (1) 4.3 20:38:37 10° NNW 20:43:45 39° NE 20:48:13 13° ESE
GENESIS II 4.1 20:40:19 10° SSW 20:44:07 67° ESE 20:47:56 10° NNE
Cosmos 2333 Rocket 4.2 20:39:56 10° NW 20:44:51 29° WSW 20:49:46 10° SSW
BREEZE-M DEB (TANK) 3.6 20:46:20 10° NNE 20:47:58 16° ENE 20:49:12 14° E
ATLAS V CENTAUR R/B 3.0 20:48:32 10° SSW 20:50:01 20° SSE 20:50:28 18° SE
Cosmos 1378 3.8 20:49:41 10° SSE 20:53:06 33° E 20:56:28 10° NNE
YAOGAN 1 3.4 20:49:05 10° S 20:53:18 52° WSW 20:57:29 10° NNW
CZ-4 R/B 3.4 20:49:53 10° SSW 20:53:23 29° WSW 20:56:48 10° NW
MONITOR-E 4.0 20:51:05 10° S 20:54:04 85° W 20:57:02 10° NNW
Cosmos 1726 Rocket 4.3 20:51:32 10° NNE 20:55:29 33° E 20:58:30 15° SE
Thor Agena Rocket 4.0 20:53:33 10° NE 20:58:10 37° ESE 21:02:46 10° S
Cosmos 1707 3.8 20:57:34 19° SE 20:59:09 24° E 21:02:20 10° NE
Envisat 4.1 20:58:07 18° ESE 21:00:19 24° ENE 21:04:18 10° NNE
Delta 2 Rocket 3.9 20:58:15 10° WNW 21:04:12 72° SSW 21:08:34 21° SE
Cosmos 1544 3.5 21:01:33 10° NNW 21:05:05 61° W 21:08:39 10° S
FengYun 1-2 T 4.3 21:00:12 10° SSE 21:05:42 58° ENE 21:11:08 10° N
ARIANE 5 R/B 3.6 21:03:59 10° WNW 21:08:54 46° N 21:11:48 16° ENE
PSLV R/B 3.8 21:05:53 10° WSW 21:08:58 54° NW 21:12:02 10° NE
Cosmos 1048 Rocket 4.1 21:07:16 10° S 21:12:17 49° ESE 21:17:21 10° NNE
Cosmos 1844 Rocket 3.2 21:10:28 10° S 21:15:35 35° ESE 21:20:41 10° NE
Aureole 1 Rocket 1.9 21:19:22 23° S 21:21:06 75° ESE 21:24:02 10° NNE
Cosmos 1626 Rocket 3.7 21:18:38 10° S 21:23:05 75° W 21:27:31 10° N
ARIANE 5 DEB (SYLDA) 2.3 21:22:37 10° W 21:24:53 78° N 21:25:45 46° ENE
Cosmos 1627 Rocket 4.4 21:24:49 10° N 21:31:00 75° E 21:35:43 19° S
SJ-6B 3.7 21:32:45 33° NE 21:32:45 33° NE 21:35:28 10° N
Ariane V96 H10-3 4.2 21:28:59 10° WSW 21:31:53 21° SSW 21:31:53 21° SSW
GPS 2-14 Rocket1 2.9 21:28:36 10° WSW 21:32:23 59° NNW 21:33:23 42° NE
SPOT 3 Rocket 3.7 21:28:22 15° S 21:32:41 73° WSW 21:37:49 10° NNW
Cosmos 1805 3.1 21:29:58 10° N 21:33:51 89° W 21:34:43 53° S
Cosmos 1602 Rocket 4.3 21:33:38 10° SSW 21:37:57 53° W 21:42:18 10° N
Cosmos 1400 Rocket 3.0 21:38:32 26° SSW 21:40:44 74° W 21:44:47 10° N
SL-16 R/B 2.9 21:37:01 10° NNW 21:42:31 52° WSW 21:46:25 19° S
GOES 2 Rocket 3.0 21:39:18 10° NW 21:43:25 61° NNE 21:43:27 61° NNE
Meteor 2-5 Rocket 3.7 21:45:28 44° SSE 21:47:12 63° E 21:53:03 10° NNE
Cosmos 1371 Rocket 4.2 21:43:28 10° N 21:47:59 50° ENE 21:47:59 50° ENE
CZ-2D R/B 3.6 21:52:14 62° NW 21:52:14 62° NW 21:55:35 10° NNW
Cosmos 2026 Rocket 4.1 21:46:53 10° N 21:52:57 74° W 21:56:42 25° S
ATLAS 2AS CENTAUR R/B 3.9 21:51:29 10° SW 21:58:09 44° WNW 22:05:24 10° N
OAO 2 Rocket 4.4 21:55:46 10° NNW 22:00:11 36° NNE 22:00:11 36° NNE
Resurs 01 Rocket 4.0 22:04:57 13° NNE 22:04:57 13° NNE 22:05:32 10° NNE
Cosmos 2056 Rocket 4.2 21:56:40 10° N 22:00:25 43° NNE 22:00:25 43° NNE
Cosmos 1624 Rocket 4.5 22:01:04 10° N 22:05:04 50° NNE 22:05:04 50° NNE
Cosmos 1603 4.1 22:12:35 10° NNW 22:17:07 58° N 22:17:07 58° N
CZ-3C R/B 3.9 13:37:38 10° WSW 22:24:00 35° NW 22:28:29 16° NNE
Ariane H10 4.2 21:23:46 10° W 22:25:35 79° S 22:27:38 63° ESE
